Terug naar catalogus

STARLINK-11538

ActiefCommunicatieVLEO
NORAD 62554·PAYLOAD·🇺🇸 United States

Gelanceerd Jan 10, 2025 vanaf Cape Canaveral Space Force Station

Loading…

Volgende Passages (komende 24 uur)

TLE

VersSource: CelesTrak SupGP

Epoch: Sep 14, 2026, 21:29 UTC

1 62554C 25006A   26257.89562500  .00030113  00000+0  23400-3 0  2578
2 62554  43.0009  79.0624 0001607 271.5875  89.5177 15.70812041    14

Volg STARLINK-11538 in realtime met AllMySat

Download on the App Store